Voltar ao catálogo

SL-12 DEB

AtivoHEO
NORAD 41681·DEBRIS·🇷🇺 Russia

Lançado Oct 26, 2007 de Baikonur Cosmodrome

Loading…

Próximas Passagens (próximas 24 horas)

TLE

AtualizadoSource: Space-Track

Época: Sep 11, 2026, 00:03 UTC

1 41681U 07052N   26254.00234495  .00002202  00000-0  77363-3 0  9995
2 41681  64.9459 146.6917 5739788 193.8998 139.1726  4.40159161192728

Acompanhe SL-12 DEB em tempo real com AllMySat

Download on the App Store